GFSCGP_250_spd_159.txt.gz
Wind_Speed
38 40 42 44 46 55 67 76 86 93 104 120 123 126 126 122 122 115 109 104 102 105 104 101 97 94 93 94 91 87 89 84 83 83 82 80 78 74 70 68 67 65 65 66
32 32 36 38 42 45 55 66 77 89 98 107 119 129 131 128 126 116 110 106 104 103 105 104 100 96 93 92 92 90 86 86 86 86 84 82 81 78 75 74 72 72 72 72
24 26 28 31 36 38 45 57 67 79 91 100 114 129 136 133 129 123 116 108 105 101 101 102 102 98 95 92 90 91 89 86 89 86 84 84 83 80 80 81 78 77 76 74
23 22 23 27 31 35 41 47 61 70 82 88 107 119 131 132 130 127 116 107 105 100 97 99 101 101 94 94 94 97 91 88 90 87 85 83 83 85 87 82 79 79 77 77
23 21 21 23 28 30 36 44 55 62 73 85 95 112 125 132 135 129 117 103 102 97 96 96 95 100 99 97 94 97 95 94 90 85 82 81 83 85 82 80 79 78 77 77
27 19 19 20 22 26 32 39 49 57 64 70 85 102 114 125 130 126 115 105 104 101 97 96 93 95 96 98 94 92 92 91 90 84 82 83 85 83 80 77 77 77 77 77
25 25 22 21 21 22 28 34 41 49 57 65 79 96 107 122 127 126 117 111 108 105 99 95 92 91 95 90 91 93 88 87 87 86 85 84 81 78 76 75 75 72 70 69
28 28 22 21 21 21 23 29 35 44 52 59 73 87 99 116 124 129 122 118 111 108 103 95 92 92 92 87 83 84 82 86 84 87 88 84 80 77 73 73 69 62 60 62
29 30 28 26 21 21 21 26 30 37 44 50 61 75 93 110 117 127 124 127 121 113 103 92 89 93 89 84 77 68 70 76 80 82 86 84 79 76 73 72 71 69 67 66
32 29 29 30 21 21 21 21 25 29 35 44 52 64 85 102 114 131 137 132 121 107 98 90 90 92 91 85 76 76 71 70 73 75 77 79 78 77 72 69 71 71 71 73
30 28 27 26 25 19 19 19 21 23 30 38 50 64 86 103 117 131 132 128 117 104 97 93 91 88 73 84 84 80 73 68 65 66 67 68 71 71 69 69 71 72 74 78
34 31 29 27 25 22 17 14 16 20 29 37 47 60 78 94 110 125 127 123 117 107 101 96 93 87 107 83 80 78 74 69 67 63 62 60 58 59 63 65 68 70 72 69
34 30 27 24 22 18 15 13 17 22 31 40 49 60 76 92 102 120 128 128 120 110 107 101 96 84 79 77 75 71 69 71 66 62 63 58 56 54 56 59 60 62 63 63
28 28 25 22 20 17 13 15 20 26 33 40 49 58 76 92 106 125 132 130 125 116 110 101 89 84 83 82 75 75 72 69 66 67 62 60 59 58 58 59 61 62 63 64
26 25 21 19 17 15 12 17 20 26 33 42 50 59 74 90 105 118 129 136 128 121 116 93 89 85 83 80 78 74 73 70 69 66 64 63 62 62 63 64 64 64 66 67
25 23 22 18 15 13 11 14 17 26 34 42 50 56 73 88 98 110 121 129 129 127 114 92 91 87 85 82 79 75 73 71 69 65 63 63 63 64 64 64 65 65 65 64
26 25 20 18 14 10 7 7 14 22 33 39 45 57 71 79 86 97 113 122 129 118 95 100 95 90 88 85 80 75 73 72 68 64 64 63 63 62 62 63 62 64 62 62
26 25 19 15 9 7 1 6 14 21 29 37 50 57 69 75 83 82 75 108 115 109 100 99 96 92 88 86 82 78 74 70 66 65 64 64 62 59 59 59 60 60 61 63
24 23 22 16 6 5 7 9 13 23 31 39 44 51 64 73 82 85 86 90 111 109 105 97 96 92 89 87 83 80 75 70 67 66 66 64 62 60 59 61 61 63 63 65
24 21 17 16 8 8 12 14 15 21 29 33 35 46 58 68 78 90 90 80 97 107 106 98 96 92 90 85 77 76 74 71 66 64 62 59 59 62 62 62 63 62 62 65
30 20 18 14 7 12 18 16 21 27 24 25 33 44 56 65 70 65 76 85 91 95 102 100 97 92 87 79 77 71 71 68 67 66 65 64 63 61 61 61 62 61 64 67
29 25 23 17 11 10 16 19 20 22 28 27 33 47 60 66 60 65 65 73 76 88 94 96 94 88 83 73 69 68 65 64 65 65 65 65 63 61 61 62 64 66 69 71
28 27 22 16 12 7 9 14 23 26 27 34 35 51 60 62 59 63 62 63 66 72 81 84 83 83 77 71 65 64 62 61 62 63 62 60 60 59 63 65 67 67 69 70
22 22 18 14 12 11 14 17 20 25 28 36 42 51 59 62 54 54 58 54 53 61 64 72 76 74 73 65 59 58 58 59 58 59 58 57 58 62 63 61 59 61 67 69
20 19 15 14 13 16 23 26 30 37 39 44 47 52 49 51 44 45 47 45 41 49 55 60 65 64 63 60 58 55 56 54 55 55 55 56 57 57 58 61 64 67 71 69
16 16 12 14 15 23 32 38 47 48 50 59 52 49 47 44 37 36 36 39 46 48 51 53 56 58 56 57 58 58 56 54 53 54 56 57 58 58 59 62 64 65 67 68

GFSCGP_250_spd_162.txt.gz
Wind_Speed
37 38 38 38 44 49 57 64 72 82 93 102 106 118 122 133 130 124 120 118 114 111 105 107 104 101 95 94 91 87 91 87 88 83 80 77 78 75 72 71 71 72 71 72
33 34 33 35 38 40 44 49 60 71 83 94 98 105 114 136 134 129 123 121 116 113 107 108 106 101 95 92 89 88 88 84 87 86 85 81 80 77 75 77 76 74 75 75
29 28 26 28 32 35 37 40 50 60 74 83 89 87 106 123 129 131 126 122 120 115 112 107 105 101 98 93 88 90 91 90 82 86 82 82 80 78 79 81 80 79 80 79
28 27 25 24 27 29 31 35 41 52 63 70 82 86 103 116 124 130 129 127 121 115 111 108 104 100 100 95 87 91 95 95 93 87 81 80 81 81 83 84 84 83 83 81
28 25 22 22 21 23 26 30 35 42 53 61 72 86 92 108 119 124 129 127 120 116 113 110 102 98 97 94 87 91 93 90 91 87 83 80 79 79 86 87 87 85 84 81
29 24 23 23 22 21 23 25 31 35 45 52 65 73 81 99 109 120 126 126 121 116 111 110 105 100 94 88 90 92 92 88 90 89 83 76 70 70 67 74 89 87 84 79
29 26 26 24 24 22 23 23 26 31 38 47 55 62 73 90 106 117 125 128 123 114 110 108 103 102 97 87 88 90 88 86 86 82 80 80 60 61 72 66 71 81 79 79
27 30 29 28 26 26 23 23 24 26 29 36 49 55 67 82 98 112 122 122 121 115 109 107 102 102 95 91 87 83 82 84 81 80 78 76 81 85 82 74 80 82 80 81
26 30 30 29 29 27 24 24 22 21 26 30 41 49 59 73 86 101 113 123 120 115 114 110 105 100 95 90 86 76 75 75 78 83 83 81 79 84 91 88 89 83 79 79
29 24 34 30 26 28 23 23 21 19 22 27 33 42 52 62 81 91 109 123 122 119 120 113 106 99 87 90 84 81 71 69 71 77 81 80 83 84 83 83 79 78 79 79
34 29 31 26 24 23 21 22 20 19 19 27 32 37 45 60 74 90 108 126 129 123 123 110 106 97 86 86 82 77 70 66 68 70 68 72 72 73 78 82 81 79 75 72
33 24 23 23 22 21 20 21 18 19 21 27 29 31 43 57 74 90 103 123 127 121 116 110 105 93 87 77 73 54 58 69 72 75 70 72 70 66 71 68 62 66 67 67
28 25 23 24 21 18 18 20 18 20 22 24 27 33 46 56 70 83 99 109 118 121 118 113 103 94 77 67 62 62 53 60 57 65 68 67 65 66 67 67 67 62 61 59
27 25 24 22 21 18 17 18 18 20 21 24 29 37 46 55 69 82 97 109 115 117 113 109 93 73 61 61 51 54 52 67 50 49 57 61 62 61 61 59 58 57 55 55
31 27 25 24 20 18 17 14 15 18 20 24 28 36 48 58 68 83 93 95 113 119 107 100 92 75 58 46 59 50 47 34 32 37 50 57 59 56 53 54 54 55 55 57
31 32 26 22 18 14 13 10 11 14 18 23 29 39 43 54 66 79 81 89 107 109 104 100 95 90 94 69 59 76 91 57 64 51 53 56 52 53 55 56 56 60 61 62
25 30 31 22 16 13 11 5 7 8 13 21 28 36 41 55 67 78 85 90 100 86 97 98 96 91 91 94 75 72 88 76 68 68 69 65 67 63 58 58 59 61 62 64
22 26 29 21 14 10 7 5 2 4 12 18 24 30 42 49 60 76 83 91 80 89 95 95 98 95 90 88 89 75 70 76 70 71 73 69 65 60 61 59 61 63 65 65
29 27 24 20 12 5 3 2 4 6 13 17 20 30 40 44 57 71 80 82 80 96 106 91 89 91 94 84 91 96 95 89 87 85 78 73 68 64 63 64 65 64 64 65
32 33 25 15 10 6 2 6 9 13 14 14 21 32 33 35 49 61 75 93 82 87 102 86 90 91 94 92 94 95 93 93 89 82 77 71 67 65 65 66 65 65 65 67
32 34 24 19 12 6 5 8 12 15 19 18 25 26 34 42 48 62 68 75 83 81 98 87 90 91 87 86 87 84 82 77 74 71 68 66 65 65 65 65 65 66 67 69
27 26 20 18 14 7 5 9 10 18 22 25 29 42 58 66 60 62 45 58 68 88 90 102 91 91 89 84 81 78 78 72 69 69 68 67 67 67 66 66 66 66 68 70
26 25 18 13 8 3 4 5 12 19 28 34 42 61 73 75 66 61 60 54 67 72 88 93 99 92 86 85 80 78 78 73 66 65 65 66 64 64 64 66 65 66 68 69
23 24 18 10 5 5 6 10 18 27 30 44 62 70 76 72 65 52 54 61 62 61 74 86 93 89 84 81 77 77 72 71 67 64 63 64 62 61 62 62 64 67 68 69
18 18 18 8 6 9 14 24 31 34 39 51 72 75 72 67 58 52 49 51 50 51 64 74 86 88 82 76 73 71 68 64 62 61 61 61 60 59 58 60 63 65 69 70
15 18 18 5 9 18 26 34 40 44 53 54 67 70 66 64 55 54 43 41 44 47 61 66 69 72 76 74 71 67 65 62 61 58 57 57 54 54 59 61 63 66 68 70

GFSCGP_250_spd_165.txt.gz
Wind_Speed
52 43 40 38 40 44 51 53 63 72 88 101 108 119 128 134 136 131 128 125 118 111 103 107 107 100 101 91 89 95 85 59 74 85 78 72 86 74 73 73 72 70 71 71
48 40 36 35 37 37 38 43 53 59 71 84 93 102 109 126 140 137 135 129 122 116 110 108 111 103 101 96 91 88 81 48 52 79 90 73 74 77 76 77 74 74 74 74
41 38 34 31 33 33 35 37 40 48 56 66 81 90 96 109 124 135 137 136 131 119 114 114 113 108 102 95 90 91 94 93 99 70 66 87 79 77 80 81 78 76 77 78
32 27 25 27 26 27 31 29 32 39 46 57 68 70 83 96 111 124 133 138 133 128 121 118 117 108 105 95 90 90 94 102 110 103 83 66 61 67 70 76 79 79 81 80
28 26 26 27 24 23 28 25 27 32 37 48 61 60 72 88 98 109 120 128 133 132 129 123 116 112 105 98 90 88 92 97 94 79 71 48 63 62 63 59 62 69 73 74
30 28 27 28 27 24 23 22 25 27 30 40 53 45 65 70 81 94 106 119 125 132 131 121 115 113 105 100 93 89 90 92 88 74 70 57 75 77 80 85 88 88 86 77
30 29 27 30 25 27 24 22 22 22 24 33 40 44 55 66 73 83 97 109 116 124 128 119 117 114 105 98 92 91 84 88 81 75 75 53 42 60 68 83 80 68 73 77
23 30 30 32 30 28 28 25 22 16 23 27 38 39 50 57 65 75 90 100 109 122 128 125 118 113 106 94 92 88 84 79 76 79 79 79 95 68 61 68 72 77 75 81
24 28 37 36 31 31 29 25 23 15 22 25 36 33 42 49 58 66 78 91 100 118 126 124 118 117 99 89 88 87 85 76 73 79 77 80 84 85 92 91 85 81 82 80
31 29 37 34 32 30 28 29 24 20 21 24 30 26 37 45 48 56 68 85 97 112 122 124 120 117 98 87 87 87 81 72 70 66 67 72 78 82 88 89 86 83 80 78
34 32 29 27 27 28 26 26 26 22 24 22 24 24 33 36 40 52 67 81 91 109 118 121 122 113 98 89 84 83 77 70 64 59 58 64 70 76 81 81 75 78 77 77
31 29 29 27 24 23 23 24 25 21 24 19 16 24 28 30 37 46 59 75 85 98 110 116 118 109 98 88 85 72 70 68 61 60 59 60 60 61 64 66 67 65 67 74
27 28 25 30 29 26 19 20 20 20 18 16 15 20 24 29 36 44 55 64 70 84 99 109 107 100 90 84 80 67 60 59 55 57 53 49 48 57 59 59 60 65 63 64
25 33 32 28 24 22 21 17 18 16 15 15 16 20 25 31 37 43 48 59 72 80 93 103 102 94 88 77 66 56 48 50 47 52 48 52 54 61 63 61 61 66 65 67
30 31 30 29 24 22 20 16 13 13 13 14 16 23 27 32 37 43 52 66 69 76 92 97 93 88 73 67 56 45 33 36 36 42 47 56 55 58 57 62 64 65 59 59
34 32 31 29 28 22 17 15 12 11 10 13 17 23 31 37 44 54 59 60 63 76 80 81 87 72 72 55 52 47 34 33 61 60 48 55 56 57 54 42 49 58 54 53
29 23 24 26 21 20 14 3 5 6 6 7 12 20 31 38 51 56 55 53 63 70 76 70 82 73 72 59 59 46 36 32 55 76 74 63 62 55 45 44 52 52 53 53
27 31 29 24 18 16 12 6 3 1 5 9 19 25 32 40 43 51 50 57 64 71 77 65 77 77 69 66 56 52 58 35 70 81 78 64 53 48 48 47 52 52 57 57
25 30 33 24 18 12 8 5 4 4 10 14 22 28 34 39 42 41 44 60 68 42 61 71 80 75 70 58 52 42 47 62 78 82 73 69 60 56 55 59 54 56 60 60
28 29 29 19 15 15 10 6 3 11 15 20 23 27 36 39 35 35 57 70 85 71 56 68 76 79 70 65 55 51 77 81 84 77 67 62 68 59 60 59 63 67 70 66
26 27 18 23 16 15 12 5 3 12 24 23 26 31 38 48 53 64 67 81 73 75 76 75 76 78 78 79 67 67 80 74 87 74 68 67 66 67 68 71 72 71 67 65
21 25 16 15 15 8 10 10 5 13 21 26 31 40 43 56 69 76 76 74 62 68 73 77 70 72 82 85 80 78 69 71 73 60 61 61 62 66 70 74 68 65 68 69
17 20 21 12 10 2 4 5 10 23 27 33 38 46 54 70 89 92 88 80 63 73 75 74 71 73 78 84 87 85 79 71 73 71 71 73 74 74 74 69 69 69 71 71
18 17 18 13 5 2 12 16 23 28 35 43 49 57 72 89 88 97 93 74 65 83 82 78 81 83 86 83 87 89 92 83 78 77 76 76 81 77 73 73 72 71 71 74
16 18 19 16 4 8 18 27 39 51 51 52 63 74 82 83 90 82 85 87 75 76 82 86 86 82 88 85 80 82 83 83 88 91 86 81 79 80 79 79 77 75 77 81
15 16 17 5 3 17 28 43 65 63 61 79 79 77 83 90 84 82 76 69 70 73 81 86 85 81 84 84 85 84 79 79 79 79 79 77 76 77 73 72 73 76 80 79

GFSCGP_250_spd_168.txt.gz
Wind_Speed
68 68 69 71 72 73 73 73 72 78 87 87 98 112 123 135 136 135 134 131 130 121 114 108 103 96 91 86 86 78 78 79 70 53 48 44 55 69 84 87 84 73 65 62
57 55 55 57 56 56 56 56 56 64 72 75 84 91 99 119 134 139 139 137 135 128 118 114 110 103 90 85 87 83 83 82 82 48 50 54 71 80 85 86 82 76 75 81
47 46 46 44 43 43 46 44 44 49 59 66 71 76 87 99 116 135 142 140 139 136 125 119 115 111 96 83 83 86 88 85 90 79 51 56 56 60 71 68 51 68 82 71
39 40 38 38 36 34 40 34 39 42 48 57 59 66 73 87 100 116 132 145 143 140 134 126 121 119 103 89 84 86 90 88 83 86 65 32 44 61 70 71 79 73 74 70
34 35 35 35 32 28 31 29 32 37 39 47 52 49 65 74 83 99 115 133 146 144 141 134 125 123 111 98 88 86 90 90 84 79 84 75 66 63 39 32 42 56 66 67
38 29 33 30 31 28 28 26 29 31 33 41 43 42 59 61 72 86 103 118 136 147 144 138 130 124 114 105 94 86 87 90 87 81 80 60 41 44 54 63 57 54 49 52
33 33 30 29 31 37 33 29 27 28 31 36 38 40 54 58 57 72 87 103 118 140 142 138 133 127 116 105 98 91 87 86 89 85 76 76 65 76 74 78 61 58 58 56
30 33 36 35 35 37 40 35 31 25 29 35 41 39 46 48 53 63 73 88 103 119 139 133 135 128 118 107 99 95 89 87 87 89 92 92 101 93 85 70 60 42 52 63
25 29 32 31 34 29 32 32 29 26 30 35 37 34 40 45 51 54 63 74 86 102 121 128 129 130 122 110 100 95 90 87 86 85 92 93 90 85 83 81 71 70 64 64
26 26 31 33 30 29 26 29 28 26 23 28 30 33 40 43 47 49 57 66 75 89 103 119 113 130 125 114 102 97 91 91 83 83 83 82 76 70 63 79 80 70 69 65
26 26 31 30 27 31 29 29 30 26 21 24 23 32 37 39 42 45 53 60 73 82 93 106 106 117 125 114 105 100 97 89 82 80 77 73 67 73 85 82 78 78 81 85
25 25 28 35 34 31 29 28 29 25 23 19 20 30 33 33 37 42 48 54 61 70 81 94 102 105 111 114 104 100 95 89 81 76 71 65 67 66 72 74 79 86 91 92
24 26 22 27 35 38 32 25 24 22 20 19 16 31 25 31 34 38 40 45 52 62 72 84 93 91 102 110 105 99 94 81 75 70 63 60 60 53 53 65 75 82 83 79
25 25 25 27 33 27 23 19 20 19 17 17 21 26 22 27 27 30 33 39 45 55 63 71 77 85 96 105 104 97 84 72 66 62 55 51 55 56 59 58 59 61 64 61
28 29 27 26 28 28 18 15 14 15 14 16 19 25 22 21 21 28 31 34 39 49 56 64 74 83 93 100 94 79 68 60 55 51 51 53 51 53 55 56 58 55 58 60
28 28 31 27 26 22 15 12 11 11 10 16 19 19 21 22 24 29 35 39 44 50 55 64 74 84 92 86 74 68 52 52 48 42 45 46 53 52 54 61 60 56 61 67
26 26 28 23 20 17 13 9 10 7 6 10 11 14 21 25 30 32 35 42 47 54 56 63 71 83 84 76 63 49 47 43 47 37 41 41 44 48 62 56 57 60 66 68
27 28 25 19 17 16 16 10 8 4 5 9 13 19 23 27 31 33 40 46 52 58 59 50 66 76 77 70 59 57 35 41 46 41 36 40 41 67 71 66 63 65 63 60
25 27 23 18 13 13 15 11 8 2 9 14 17 21 22 24 34 46 54 55 56 60 58 58 72 76 76 72 62 54 52 49 40 40 41 66 58 78 70 65 63 66 63 62
20 23 24 23 14 9 12 14 9 1 13 22 22 28 36 40 58 59 61 59 57 59 55 65 70 78 77 73 69 54 51 55 44 35 57 56 66 83 74 67 67 64 60 55
20 18 19 20 18 10 9 13 7 7 15 30 36 40 59 68 74 68 69 70 68 57 49 52 69 73 77 75 71 57 59 60 68 66 58 63 75 79 80 74 69 63 57 54
18 19 18 14 16 9 4 13 7 16 29 36 47 63 84 89 85 81 76 67 61 50 43 52 67 74 76 73 68 63 65 62 69 61 56 62 74 76 71 68 62 58 59 61
18 17 14 12 11 5 5 14 17 27 35 48 71 90 99 87 83 77 74 72 50 36 54 59 72 74 78 78 74 71 63 58 66 68 55 67 76 77 72 71 69 64 67 70
16 16 13 9 9 3 12 18 24 36 45 71 84 103 93 87 82 82 75 62 49 47 54 65 66 70 69 74 72 69 65 60 58 59 63 74 76 73 66 63 64 65 68 71
13 14 12 6 3 9 19 26 36 46 64 76 101 109 97 88 77 73 59 57 48 58 39 52 65 72 72 71 67 64 57 64 58 65 74 71 64 63 60 62 65 64 67 69
12 13 9 3 8 17 24 37 47 60 70 87 115 105 93 81 71 61 64 57 48 51 55 55 55 63 70 72 69 69 70 65 61 61 64 66 63 62 60 62 62 67 70 73

GFSCGP_250_spd_171.txt.gz
Wind_Speed
71 73 70 74 78 82 87 95 104 113 118 114 116 113 122 126 122 123 124 122 121 121 115 111 104 97 93 94 99 96 81 65 58 63 66 68 69 69 68 61 61 56 61 63
62 61 59 63 62 67 71 77 84 91 100 105 111 116 121 127 129 133 134 136 133 133 123 121 114 104 97 97 100 99 97 98 74 66 70 71 63 60 51 51 51 54 60 62
54 48 52 50 55 55 62 69 72 79 86 87 92 98 104 113 116 127 134 141 140 139 134 130 120 113 106 97 99 101 101 97 88 78 74 71 66 53 43 48 46 53 59 56
43 38 42 43 48 48 52 60 58 65 70 73 76 78 87 90 97 106 119 132 142 144 146 139 128 120 112 105 100 97 92 89 85 86 77 78 63 52 50 47 43 40 48 53
34 35 36 40 42 41 43 48 51 56 55 55 57 58 73 75 77 87 100 113 131 143 149 147 139 126 117 112 104 97 93 90 88 87 80 74 60 56 52 46 46 53 46 37
36 33 34 36 39 39 41 45 49 50 45 40 56 43 61 65 67 75 84 94 108 129 144 151 147 135 122 117 109 100 93 91 87 81 83 76 68 70 59 43 42 49 43 50
38 36 33 34 38 43 43 43 40 42 42 37 52 40 51 60 57 66 76 85 98 115 133 146 150 143 129 120 113 105 95 92 86 79 81 82 74 67 60 46 39 57 60 60
37 38 33 31 34 36 43 38 35 31 36 40 42 41 46 57 46 59 66 77 88 103 118 136 145 147 134 123 116 108 100 96 87 79 79 81 77 68 67 70 52 61 69 55
33 38 40 32 34 33 32 39 35 31 31 29 41 43 44 45 47 53 58 68 79 93 107 123 140 141 139 120 117 112 105 96 95 83 79 82 83 77 68 74 68 66 64 58
27 29 38 35 33 31 31 33 34 34 27 27 35 40 42 43 47 50 55 62 72 84 97 109 126 134 135 115 113 114 107 97 97 91 79 80 79 82 82 78 61 65 69 66
25 29 34 33 34 37 35 31 31 31 27 25 31 37 41 44 44 47 50 56 64 75 87 99 112 125 121 110 107 111 108 100 98 91 81 80 75 78 80 76 81 75 73 81
27 25 28 32 35 36 35 34 32 27 26 24 28 30 42 43 42 40 46 53 62 69 78 90 99 109 111 100 100 108 106 101 100 95 86 80 77 74 76 83 86 85 87 89
28 29 27 34 35 37 38 35 27 27 26 27 21 30 40 36 27 33 39 48 53 61 69 77 83 89 96 91 92 104 106 101 99 94 87 78 78 75 72 74 76 73 75 78
26 31 32 34 28 33 38 36 26 27 24 26 27 25 31 25 23 32 40 40 43 53 59 66 75 75 82 83 87 98 107 103 102 93 84 80 78 73 65 62 64 67 70 70
26 30 34 38 31 33 30 25 24 24 22 22 20 19 21 19 27 26 29 32 39 50 54 60 68 68 76 78 81 95 102 103 98 87 80 78 75 72 59 56 59 64 63 63
25 28 33 39 33 27 24 19 21 18 16 17 13 12 19 20 20 23 26 30 39 46 48 50 55 57 65 70 80 90 96 97 88 80 78 72 67 60 54 52 50 57 58 62
25 27 28 29 24 23 19 18 16 16 14 12 11 13 9 10 14 19 23 30 34 37 41 43 45 54 65 79 84 82 88 94 84 78 72 66 58 51 49 45 43 51 62 61
22 25 24 22 20 19 16 14 13 11 10 8 3 3 6 12 18 21 24 27 31 34 40 48 54 60 73 84 89 88 86 83 79 69 63 58 52 49 45 35 49 60 64 66
23 24 25 24 18 17 10 9 11 11 7 3 12 14 14 19 23 25 28 33 36 40 45 57 64 71 78 83 86 83 81 76 69 62 51 48 48 46 44 52 57 66 62 67
20 23 25 24 22 13 10 5 8 8 5 11 22 26 30 33 39 46 53 52 50 44 52 63 70 74 81 84 82 78 72 70 64 55 47 42 43 48 51 51 62 73 69 70
19 21 22 22 22 17 5 1 10 14 18 35 34 35 45 51 62 68 68 62 57 54 53 57 66 77 86 80 75 70 63 61 57 51 41 34 39 44 48 52 64 67 63 64
18 21 20 21 22 14 3 5 16 25 38 47 50 54 61 63 67 68 64 66 52 52 52 52 69 85 78 81 77 67 59 52 51 47 41 52 50 53 50 59 66 67 67 65
17 20 18 19 18 7 3 15 25 51 63 67 65 65 64 62 59 54 47 52 57 49 52 66 76 81 81 81 76 73 56 53 50 58 50 56 48 56 48 56 60 68 69 66
17 19 19 18 12 2 12 29 54 60 69 76 83 81 76 76 74 68 62 57 51 54 53 70 76 78 77 73 74 65 57 55 45 48 53 57 54 51 53 58 59 66 78 78
13 18 20 14 3 9 26 58 72 71 77 88 91 83 78 76 76 65 61 64 42 52 68 73 74 74 70 66 67 62 55 51 52 50 56 54 59 59 60 56 61 68 75 86
14 18 12 5 6 27 54 87 82 86 88 89 85 77 77 72 70 66 60 66 46 40 57 62 63 66 74 68 65 59 54 58 53 53 52 55 59 54 47 51 56 63 72 73

GFSCGP_250_spd_174.txt.gz
Wind_Speed
70 77 78 79 81 86 89 91 96 102 109 111 115 113 115 114 110 111 114 110 110 111 107 100 94 89 86 84 82 81 79 65 65 44 54 59 59 57 66 70 65 57 58 60
64 66 63 65 67 68 69 71 75 81 90 97 109 117 122 122 119 116 116 114 114 116 116 109 102 95 90 87 85 84 82 86 77 68 56 45 57 58 63 61 55 55 58 59
59 59 55 55 58 56 55 63 66 67 74 82 89 99 111 122 124 125 121 119 118 119 122 117 112 105 97 93 87 89 88 87 95 86 58 57 51 56 56 58 58 56 47 44
51 51 48 47 47 41 45 51 49 53 58 68 74 74 93 105 115 120 127 125 120 123 127 124 119 113 105 100 96 91 92 91 88 88 88 74 70 56 49 51 51 50 46 46
46 41 39 41 39 37 40 45 46 50 54 58 63 63 72 87 98 102 112 125 128 126 131 131 127 119 110 107 101 98 94 93 88 80 83 89 73 66 56 54 49 43 46 45
39 34 36 35 33 31 34 38 40 43 48 49 57 60 56 81 87 84 92 105 122 131 135 137 135 128 116 111 109 101 95 96 94 82 86 83 91 79 79 68 54 50 47 53
42 35 37 31 29 29 33 34 34 33 42 45 47 53 45 70 76 78 80 90 100 112 127 140 143 139 127 118 116 110 103 98 97 95 92 91 86 85 82 77 64 56 56 56
40 39 34 30 26 26 35 35 34 34 39 41 44 46 54 61 69 63 66 79 88 96 107 117 131 142 140 128 125 116 110 103 101 92 93 88 81 75 70 62 60 57 63 56
37 41 30 22 21 25 32 37 36 31 33 30 38 44 49 57 60 51 55 69 77 82 90 100 115 125 130 127 128 123 117 111 101 96 87 86 81 75 68 59 64 58 65 52
35 36 35 25 26 27 29 32 34 35 29 30 37 39 45 51 53 51 45 60 66 76 81 87 98 110 114 119 121 121 120 114 108 101 87 80 79 73 68 67 67 67 67 52
35 32 36 30 31 34 33 36 36 34 33 34 35 37 44 49 48 47 46 55 62 66 73 77 84 94 100 106 109 118 114 115 113 103 98 80 77 69 66 66 71 72 76 72
36 31 30 30 30 34 36 41 39 33 32 32 30 37 42 43 44 43 44 51 58 61 66 71 75 82 87 91 94 110 112 113 113 106 102 83 68 71 72 70 71 70 74 75
39 37 26 33 32 35 39 44 39 36 30 31 27 34 33 37 36 35 33 36 45 54 62 66 71 76 80 83 83 98 111 111 115 111 104 96 80 76 76 71 71 72 67 71
35 38 29 29 32 38 35 32 32 30 28 27 25 27 28 30 32 31 31 38 46 52 62 64 67 71 72 77 77 84 106 109 114 113 108 98 92 83 79 72 69 67 67 66
36 35 29 32 31 34 34 30 35 24 21 20 22 21 22 25 28 27 29 37 42 48 57 60 61 66 67 72 71 77 94 104 111 113 105 100 92 83 76 74 68 64 64 66
35 31 26 31 30 32 33 30 22 19 15 14 15 19 18 22 26 26 26 31 34 39 47 54 56 61 59 61 61 63 79 87 106 106 100 101 94 83 79 75 71 63 61 63
34 28 26 28 28 29 29 25 24 18 17 18 19 14 14 15 17 16 20 24 28 33 40 42 43 44 43 44 47 55 68 82 96 98 99 100 92 83 77 74 67 63 59 57
33 28 26 25 24 23 23 23 24 18 14 13 8 7 7 8 10 13 17 20 23 24 27 31 33 31 32 43 49 57 68 82 93 97 103 91 88 83 75 67 64 62 58 58
31 26 24 24 25 21 20 20 20 15 5 4 5 3 6 8 9 10 13 15 18 22 26 31 34 40 45 51 64 75 72 77 94 100 95 89 84 77 67 59 55 51 50 50
29 22 23 25 23 23 18 20 18 10 3 7 12 16 19 17 17 18 20 23 29 35 36 38 44 52 53 68 74 83 66 77 94 97 92 86 75 68 63 53 49 46 43 43
25 20 20 22 21 22 21 19 10 4 13 24 35 36 31 31 31 28 30 30 32 37 43 46 53 60 72 83 78 78 74 87 92 85 81 74 64 60 54 51 43 37 41 46
23 20 22 23 22 21 16 9 5 20 40 52 50 50 50 45 40 38 32 26 33 41 52 51 56 71 78 82 87 87 83 78 74 68 65 61 56 51 46 42 40 41 43 47
21 18 22 22 21 16 9 3 22 40 58 58 57 57 58 55 49 47 41 38 41 55 58 60 61 68 73 80 79 74 70 66 63 61 58 52 46 40 35 37 39 41 42 45
16 18 20 19 14 5 4 15 34 66 63 63 57 58 62 57 53 53 36 49 59 63 66 70 74 82 80 79 73 70 64 52 58 55 53 48 47 38 41 39 41 43 46 49
13 15 18 13 4 6 15 32 67 66 64 62 58 60 64 64 51 50 48 50 63 71 77 82 83 79 75 73 67 63 57 54 56 49 50 47 41 42 44 43 43 45 48 53
12 12 7 7 12 23 42 68 71 62 59 53 51 51 53 60 53 50 48 60 70 80 83 83 83 76 70 63 56 56 54 55 58 53 53 45 50 51 48 48 45 52 52 53